Location: Banff
(51.1667°N, 115.5667°W)
Time: 10:18:57
(UTC+00:00)

SR - Pass Details

Date: 02 December 2020
Orbit: 575 x 880 km, 66.7° (Epoch: 19 January)

Event Time Altitude Azimuth Distance (km) Brightness Sun altitude
Rises 00:30:32 0° 173° (S) 2,809 ? -8.0°
Reaches altitude 10° 00:33:11 10° 156° (SSE) 1,943 ? -8.3°
Maximum altitude 00:36:19 20° 109° (ESE) 1,461 ? -8.8°
Enters shadow 00:39:09 12° 68° (ENE) 1,919 ? -9.2°
